Regional Weather Roundup
Issued by NWS

Home | Current Version | Previous Version | Graphics & Text | Print | Product List | Glossary On
Versions: 1 2 3 4 5 6 7 8 9 10 11 12 13 14 15 16 17 18 19 20 21 22 23 24 25 26 27 28 29 30 31 32 33 34 35 36 37 38 39 40 41 42 43 44 45 46 47 48 49 50
000
ASUS43 KLOT 280809
RWRIL

ILLINOIS REGIONAL WEATHER ROUNDUP
NATIONAL WEATHER SERVICE CHICAGO/ROMEOVILLE IL
300 AM CDT MON MAY 28 2018

NOTE: "FAIR" INDICATES FEW OR NO CLOUDS BELOW 12,000 FEET WITH NO
SIGNIFICANT WEATHER AND/OR OBSTRUCTIONS TO VISIBILITY.

* THESE STATIONS ARE NOT UNDER NWS QUALITY CONTROL. THEY ALSO MAY NOT
  REPORT WEATHER SUCH AS PRECIPITATION OR FOG.

ILZ001-002-007-009-015-016-024-280900-
NORTHWEST ILLINOIS

CITY           SKY/WX    TMP DP  RH WIND       PRES   REMARKS
MOLINE         FAIR      69  66  90 CALM      29.89R
STERLING*      FAIR      72  67  84 CALM      29.91R
SAVANNA*       FAIR      70  69  97 CALM      29.90R
$$

ILZ003-004-008-010-011-017-018-280900-
NORTH CENTRAL ILLINOIS

CITY           SKY/WX    TMP DP  RH WIND       PRES   REMARKS
ROCKFORD       FAIR      70  65  84 CALM      29.91R
FREEPORT*      FAIR      69  65  90 S3        29.93R
ROCHELLE*      FAIR      71  62  71 CALM      29.91R
DE KALB*       FAIR      72  61  68 CALM      29.91R
PERU*          FAIR      74  67  79 W5        29.91R
$$

ILZ005-006-012>014-019>023-280900-
NORTHEAST ILLINOIS

CITY           SKY/WX    TMP DP  RH WIND       PRES   REMARKS
CHICAGO-OHARE  FAIR      75  61  61 CALM      29.88S
CHICAGO-MIDWAY FAIR      78  64  61 SW5       29.88F HX  80
AURORA         FAIR      69  66  90 CALM      29.90S
LANSING*       FAIR      71  65  80 S3        29.90S
JOLIET*        FAIR      70  67  88 CALM      29.89F
WAUKEGAN       FAIR      67  62  84 W3        29.89S
DUPAGE AIRPORT FAIR      69  65  86 CALM      29.89S
KANKAKEE*      FAIR      73  66  78 SW5       29.91F
WHEELING       FAIR      71  64  78 CALM      29.90S
MORRIS*        FAIR      72  64  75 S5        29.89S
ROMEOVILLE*    FAIR      72  64  76 S6        29.89F
$$

LMZ740>746-280900-
SOUTHERN LAKE MICHIGAN

STATION/POSITION SKY/WX   TEMP    WIND        PRES    VSBY  WAVE
                          AIR SEA DIR/SP/G                  HT/PER
                          (F)     (DEG/KT/KT) (MB)    (MI)  (FT/S)
SOUTHERN BUOY              58 47  230/  2/  2 1012.3F         0
WILMETTE HARBOR            64 59  160/  2/  4   N/A           0
HARRISON CRIB              81     190/ 10/ 11   N/A
BURNHAM HARBOR                    260/  5/  6   N/A
CALUMET HARBOR             76     200/  4/  5 1011.5F
BURNS HARBOR               78     190/  9/ 11 1012.5
MICHIGAN CITY              77     180/  4/  6   N/A
MICHIGAN CITY 6N           70 66  190/  4/  4   N/A           0
ST. JOSEPH                 70 67  190/  2/  4 1012.1          0
$$

ILZ025>027-034>036-040-047-049-050-058-095>099-280900-
WEST-CENTRAL ILLINOIS

CITY           SKY/WX    TMP DP  RH WIND       PRES   REMARKS
QUINCY         CLEAR     72  65  78 S7        29.92R
GALESBURG*     FAIR      70  65  86 CALM      29.92S
MACOMB*        CLEAR     68  67  98 W5        29.93S
JACKSONVILLE*  CLEAR     71  67  88 CALM      29.91R
PITTSFIELD*    CLEAR     72  71  96 W3        29.93R
$$

ILZ028>032-037-038-041>044-048-051>054-059>061-280900-
CENTRAL ILLINOIS

CITY           SKY/WX    TMP DP  RH WIND       PRES   REMARKS
PONTIAC        FAIR      75  68  77 SW3       29.92F
BLOOMINGTON    FAIR      71  65  81 SW3       29.93F
DECATUR        FAIR      69  64  84 CALM      29.92S
PEORIA         FAIR      74  70  87 CALM      29.92R
LACON*         FAIR      71  69  92 CALM      29.91R
LINCOLN*       FAIR      70  69  96 CALM      29.92R
SPRINGFIELD    FAIR      71  68  90 CALM      29.91S
TAYLORVILLE    FAIR      68  68  99 CALM      29.92S
$$

ILZ033-039-045-046-055>057-062-063-280900-
EAST-CENTRAL ILLINOIS

CITY           SKY/WX    TMP DP  RH WIND       PRES   REMARKS
CHAMPAIGN      FAIR      70  68  93 CALM      29.93S
DANVILLE*      FAIR      69  68  97 CALM      29.91S
RANTOUL*       FAIR      73  71  93 CALM      29.93S
MATTOON        FAIR      69  68  96 CALM      29.92S
PARIS*         FAIR      68  68  99 CALM      29.94S
$$

ILZ079-100>102-280900-
SOUTHWEST ILLINOIS

CITY           SKY/WX    TMP DP  RH WIND       PRES   REMARKS
ALTON          CLEAR     67  67 100 CALM      29.91S
BELLEVILLE     CLEAR     69  69  97 CALM      29.89F
CAHOKIA*       CLEAR     70  67  90 CALM      29.90S
SPARTA*        CLEAR     73  73 100 CALM      29.92R
$$

ILZ064>066-069>071-074>076-080>082-084>086-088>090-092>094-280900-
SOUTH-CENTRAL ILLINOIS

CITY           SKY/WX    TMP DP  RH WIND       PRES   REMARKS
CARBONDALE     FAIR      69  68  96 CALM      29.89F FOG
CAIRO*         FAIR      72  71  97 CALM      29.88S
EFFINGHAM*     FAIR      67  67 100 CALM      29.93S
MARION         FOG      N/A N/A N/A CALM      29.91S VSB 1/4
MT. VERNON     FAIR      64  64 100 CALM      29.91S FOG
CENTRALIA*     CLEAR     69  69 100 CALM      29.91S FOG
SALEM*         FAIR      70  68  94 CALM      29.91F FOG
METROPOLIS*    FAIR      72  71  97 CALM      29.89F
$$

ILZ067-068-072-073-078-083-087-091-280900-
SOUTHEAST ILLINOIS

CITY           SKY/WX    TMP DP  RH WIND       PRES   REMARKS
LAWRENCEVILLE  FAIR      72  66  81 CALM      29.92S
FLORA*         FAIR      71  69  95 CALM      29.92S FOG
FAIRFIELD*     FAIR      67  67  99 CALM      29.89F
HARRISBURG*    FAIR      68  68 100 CALM      29.90S
ROBINSON*      FAIR      66  66 100 CALM      29.92F
CARMI*         FAIR      68  67  98 CALM      29.90S
$$

ABBREVIATIONS USED IN REMARKS
   TC - TEMPERATURE IN CELSIUS
  WCI - WIND CHILL INDEX
   HX - HEAT INDEX
  VSB - VISIBILITY
$$




USA.gov is the U.S. government's official web portal to all federal, state and local government web resources and services.